Location: Basin
(44.3800°N, 108.0380°W)
Time: 13:19:06
(UTC-06:00)

Envisat - Visible Passes

Search period start: 18 March 2019 00:00
Search period end: 28 March 2019 00:00
Orbit: 764 x 766 km, 98.2° (Epoch: 18 March)

Date Brightness Start Highest point End Pass type
(mag) Time Alt. Az. Time Alt. Az. Time Alt. Az.
18 Mar 3.8 20:08:37 10° S 20:13:35 55° W 20:18:35 10° NNW visible
19 Mar 5.9 21:13:29 10° SW 21:16:21 15° W 21:19:14 10° NW visible
20 Mar 4.9 20:34:44 10° SSW 20:39:15 32° W 20:43:47 10° NNW visible
21 Mar 3.4 19:57:17 10° S 20:02:20 69° WSW 20:07:26 10° NNW visible
22 Mar 5.8 21:01:27 10° SW 21:05:00 19° W 21:08:34 10° NW visible
23 Mar 4.5 20:23:13 10° SSW 20:27:58 40° W 20:32:45 10° NNW visible
24 Mar 6.3 21:29:52 10° W 21:30:53 11° W 21:31:53 10° WNW visible
25 Mar 5.4 20:49:39 10° SW 20:53:41 24° W 20:57:45 10° NW visible
26 Mar 4.0 20:11:46 10° S 20:16:42 50° W 20:21:39 10° NNW visible
27 Mar 6.0 21:16:59 10° WSW 21:19:30 14° W 21:22:02 10° WNW visible
